Location: Unspecified
(50.7693°N, 0.0000°E)
Time: 10:32:30
(UTC+00:00)

deb Explorer IX - Pass Details

Date: 23 June 2019
Orbit: 539 x 1111 km, 38.8° (Epoch: 16 August)

Event Time Altitude Azimuth Distance (km) Brightness Sun altitude
Rises 12:55:33 0° 213° (SSW) 3,764 ? 60.8°
Reaches altitude 10° 12:58:58 10° 197° (SSW) 2,883 ? 60.5°
Maximum altitude 13:03:49 20° 154° (SSE) 2,304 ? 60.2°
Drops below altitude 10° 13:08:47 10° 111° (ESE) 2,975 ? 59.8°
Sets 13:12:22 0° 96° (E) 3,922 ? 59.5°
